Regional Weather Roundup
Issued by NWS

Home | Current Version | Previous Version | Graphics & Text | Print | Product List | Glossary Off
Versions: 1 2 3 4 5 6 7 8 9 10 11 12 13 14 15 16 17 18 19 20 21 22 23 24 25 26 27 28 29 30 31 32 33 34 35 36 37 38 39 40 41 42 43 44 45 46 47 48 49 50

000
ASUS43 KMPX 232301
RWRMN
WEATHER ROUNDUP FOR MINNESOTA
NATIONAL WEATHER SERVICE TWIN CITIES/CHANHASSEN MN
600 PM CDT FRI JUN 23 2017


NOTE: "FAIR" INDICATES FEW OR NO CLOUDS BELOW 12,000 FEET WITH NO
SIGNIFICANT WEATHER AND/OR OBSTRUCTIONS TO VISIBILITY. N/A MEANS
CURRENT SKY AND/OR WEATHER CONDITIONS ARE NOT AVAILABLE.

MNZ060>063-068>070-240000-
   Twin Cities Metro

CITY           SKY/WX    TMP DP  RH WIND       PRES   REMARKS
TWIN CITIES    PTSUNNY   70  52  52 NW16G24   29.82R
ST PAUL        LGT RAIN  67  55  65 W14G25    29.83R
CRYSTAL        CLOUDY    70  50  49 NW17G26   29.81S
BLAINE         PTSUNNY   70  54  56 NW14      29.82R
LAKEVILLE      PTSUNNY   68  55  64 W16G23    29.84S
EDEN PRAIRIE   PTSUNNY   71  51  49 NW15G28   29.83R
SOUTH ST PAUL  PTSUNNY   69  52  53 NW18G25   29.83R
LAKE ELMO      LGT RAIN  63  54  72 NW12G26   29.84R
$$
MNZ001>005-007-008-013>017-022>024-027-028-240000-
   Northwest Minnesota

CITY           SKY/WX    TMP DP  RH WIND       PRES   REMARKS
BEMIDJI        CLOUDY    59  48  68 NW21G26   29.87S
HALLOCK        MOSUNNY   63  46  55 N10       29.90S
ROSEAU           N/A     57  50  77 NW17      29.88R
WARROAD        CLOUDY    55  52  88 NW10      29.86S
CROOKSTON      PTSUNNY   64  43  45 N17G23    29.91R
FOSSTON        CLOUDY    59  48  67 NW15      29.90S
DETROIT LAKES  PTSUNNY   63  43  48 NW18G26   29.92R
MOORHEAD       PTSUNNY   66  41  39 NW16      29.92F
PARK RAPIDS    CLOUDY    61  46  57 NW15G26   29.88R
MAHNOMEN       CLOUDY    60  46  59 NW16G22   29.90S
$$
MNZ006-009>011-018-025>026-240000-
   North Central Minnesota

CITY           SKY/WX    TMP DP  RH WIND       PRES   REMARKS
BAUDETTE       CLOUDY    57  51  80 NW21G28   29.82R
FLAG ISLAND    PTSUNNY   57  52  82 NW21      29.81S
INTL FALLS     MOSUNNY   62  54  74 W13G29    29.77R
WASKISH        CLOUDY    57  52  82 NW15G21   29.85R
BIG FORK       RAIN      59  55  88 NW6       29.81R
LONGVILLE      MOSUNNY   63  50  63 NW10G23   29.84R
GRAND RAPIDS   CLOUDY    61  52  72 NW16      29.82R
CRANE LAKE     MOSUNNY   63  52  67 W8        29.75R
ORR            CLOUDY    59  54  82 NW14      29.75R
COOK           RAIN      61  54  77 NW12G17   29.78R
WALKER         CLOUDY    58  48  69 NW13G22   29.86R
$$
MNZ012-019>021-037-240000-
   Northeast Minnesota

CITY           SKY/WX    TMP DP  RH WIND       PRES   REMARKS
DULUTH         CLOUDY    63  53  70 NW15G23   29.75R
ELY            MOSUNNY   64  46  52 W12       29.72R
HIBBING        CLOUDY    62  53  72 NW18G28   29.77R
EVELETH        LGT RAIN  58  49  74 NW9G18    29.77R
DULUTH HARBOR  PTSUNNY   64  55  72 W16G25    29.75R
TWO HARBORS    MOSUNNY   73  54  49 NW7G21    29.70R
SILVER BAY     MOSUNNY   70  48  46 W6G16     29.69R
GRAND MARAIS     N/A     69  49  48 N10G17    29.66R
G MARAIS ARPRT RAIN      55  46  71 NW7G17    29.72R
$$
MNZ029>031-032-039>041-046>048-054>057-064-240000-
   West Central Minnesota

CITY           SKY/WX    TMP DP  RH WIND       PRES   REMARKS
FERGUS FALLS   CLOUDY    63  46  55 NW18G25   29.90S
WHEATON        PTSUNNY   64  43  45 NW12G21   29.96S
MORRIS         MOSUNNY   66  46  48 NW18G30   29.93R
ALEXANDRIA     CLOUDY    62  49  62 NW16G26   29.92R
ELBOW LAKE     CLOUDY    62  47  56 NW16G25   29.93S
WADENA         CLOUDY    61  48  63 NW18G26   29.89R
GLENWOOD       PTSUNNY   63  50  63 NW22G30   29.92R
APPLETON       PTSUNNY   66  46  48 NW20      29.94R
BENSON         CLOUDY    66  48  52 N17G25    29.94S
ORTONVILLE     CLOUDY    66  46  48 NW16      29.95S
MADISON        CLOUDY    68  50  52 NW16      29.95S
WILLMAR        PTSUNNY   64  52  63 NW20G29   29.93R
$$
MNZ033>034-036-042>043-049>051-058-059-240000-
   Central Minnesota

CITY           SKY/WX    TMP DP  RH WIND       PRES   REMARKS
ST CLOUD       MOSUNNY   68  52  56 W22G28    29.85R
SAUK CENTRE    CLOUDY    64  50  61 NW21G28   29.90R
PAYNESVILLE    CLOUDY    66  49  55 W17G25    29.90R
AITKIN         LGT RAIN  59  55  88 W6        29.82R
PINE RIVER     MOSUNNY   63  50  63 NW10G23   29.88R
BRAINERD       PTSUNNY   65  51  60 NW13G21   29.84R
STAPLES        CLOUDY    63  46  55 NW16G22   29.88R
LONG PRAIRIE   CLOUDY    61  50  67 W17G25    29.90R
LITTLE FALLS   CLOUDY    66  46  48 NW14G22   29.86R
LITCHFIELD     PTSUNNY   66  52  59 NW20G25   29.89R
BUFFALO        PTSUNNY   69  49  49 W14G23    29.87R
MAPLE LAKE     MOSUNNY   68  54  60 NW15G23   29.87R
HUTCHINSON     PTSUNNY   67  53  60 NW16G25   29.90R
$$
MNZ037-044-045-052-053-240000-
   East Central Minnesota

CITY           SKY/WX    TMP DP  RH WIND       PRES   REMARKS
PRINCETON      PTSUNNY   70  52  52 NW10      29.84S
MORA           PTSUNNY   64  52  63 NW12G21   29.83R
CAMBRIDGE      PTSUNNY   68  52  56 W13G18    29.81R
RUSH CITY      PTSUNNY   68  54  60 N12G22    29.81S
MOOSE LAKE     PTSUNNY   61  52  72 NW8G16    29.77S
HINCKLEY       MOCLDY    61  59  94 W6        29.80F
CLOQUET        CLOUDY    63  52  67 N8        29.78S
MCGREGOR       PTSUNNY   61  54  77 NW9G24    29.82R
$$
MNZ071>073-080-081-089-090-097-098-240000-
   Southwest Minnesota

CITY           SKY/WX    TMP DP  RH WIND       PRES   REMARKS
MONTEVIDEO     CLOUDY    66  50  55 N15       29.93S
GRANITE FALLS  PTSUNNY   68  51  54 W20G29    29.95S
CANBY          CLOUDY    65  48  55 W12G23    29.98S
MARSHALL       CLOUDY    64  49  57 NW21G30   29.96R
REDWOOD FALLS  CLOUDY    66  49  54 NW20G25   29.92R
OLIVIA         CLOUDY    64  50  59 NW12G25   29.92R
PIPESTONE      MOSUNNY   66  46  48 NW17G26   29.99S
WINDOM         MOSUNNY   66  48  52 NW22      29.95S
WORTHINGTON    CLOUDY    64  50  60 NW20G30   29.98R
JACKSON        PTSUNNY   64  48  55 NW16G25   29.95S
TRACY          CLOUDY    65  51  59 NW15      29.97S
SLAYTON        CLOUDY    63  48  59 NW18      29.99R
$$
MNZ065>067-074>077-082>085-091>093-240000-
   South Central Minnesota

CITY           SKY/WX    TMP DP  RH WIND       PRES   REMARKS
MANKATO        PTSUNNY   69  51  52 NW17G26   29.89R
NEW ULM        CLOUDY    66  50  55 NW21G26   29.91R
ST JAMES       PTSUNNY   66  50  55 W16G26    29.93R
FAIRMONT       PTSUNNY   69  52  54 NW18G29   29.92R
GLENCOE        MOSUNNY   68  55  64 NW15G24   29.87S
FARIBAULT      CLOUDY    64  57  77 W9        29.86S
OWATONNA       PTSUNNY   68  55  64 NW13G24   29.87S
WASECA         CLOUDY    64  52  63 W20       29.89S
ALBERT LEA     MOSUNNY   68  52  56 NW13G21   29.89S
$$
MNZ078>079-086>088-094>096-240000-
   Southeast Minnesota

CITY           SKY/WX    TMP DP  RH WIND       PRES   REMARKS
ROCHESTER      PTSUNNY   67  55  65 NW20G26   29.85R
RED WING       CLOUDY    72  48  43 NW12G17   29.80R
STANTON        CLOUDY    69  56  62 NW16      29.83S
DODGE CENTER   MOSUNNY   64  54  68 W14G24    29.86S
WINONA         PTSUNNY   72  52  49 W8        29.80S
AUSTIN         PTSUNNY   68  52  56 NW15G25   29.87S
PRESTON        CLOUDY    65  53  65 NW21      29.86R
$$
ABBREVIATIONS USED IN REMARKS
   TC - TEMPERATURES IN CELSIUS
  WCI - WIND CHILL INDEX
   HX - HEAT INDEX
  VSB - VISIBILITY
$$



USA.gov is the U.S. government's official web portal to all federal, state and local government web resources and services.